Weather observations for the past three days for
Brownsville, Brownsville / South Padre Island International Airport
Imperial (Metric)
Date Time (cdt) Wind (mph) Vis. (mi.) Weather Sky Cond. Temperature (ºF) Relative Humidity Wind Chill (°F) Heat Index (°F) Pressure Precipitation (in)
Air Dwpt 6 hour altimeter (in) sea level (mb) 1 hr 3 hr 6 hr
Max. Min.
17 04:53 SE 6 10.00 Fair CLR 81 78.1 91% 89 29.93 1013.2
17 03:53 SE 5 10.00 Fair CLR 81 78.1 91% 89 29.92 1013.1
17 02:53 SE 5 10.00 Fair CLR 81 77 88% 88 29.93 1013.5
17 01:53 S 6 10.00 Fair CLR 81 78.1 91% 89 29.94 1013.9
17 00:53 S 5 10.00 Fair CLR 81 78.1 89.1 81 91% 89 29.96 1014.4
16 23:53 S 7 10.00 Fair CLR 82 78.1 88% 91 29.96 1014.3
16 22:53 SE 8 10.00 Fair CLR 82.9 78.1 85% 93 29.95 1013.9
16 21:53 S 6 10.00 Partly Cloudy SCT021 82.9 78.1 85% 93 29.94 1013.8
16 19:53 SE 10 10.00 Fair CLR 86 75.9 72% 96 29.92 1012.9
16 18:53 SE 13 10.00 Fair CLR 88 75.9 93 86 68% 99 29.91 1012.6
16 17:53 SE 13 G 20 10.00 Partly Cloudy SCT031 90 77 66% 103 29.9 1012.4
16 16:53 SE 14 10.00 Partly Cloudy SCT032 SCT043 90 78.1 68% 105 29.91 1012.8
16 15:53 SE 13 10.00 Fair CLR 91 75.9 61% 103 29.92 1013.0
16 14:53 SE 15 10.00 A Few Clouds FEW038 91 75.9 61% 103 29.93 1013.3
16 13:53 SE 14 10.00 Partly Cloudy SCT038 91.9 77 62% 106 29.95 1013.9
16 12:53 SE 15 G 22 10.00 A Few Clouds FEW036 91.9 77 93 80.1 62% 106 29.96 1014.4
16 11:53 SE 12 10.00 A Few Clouds FEW040 91.9 77 62% 106 29.96 1014.5
16 10:53 SE 9 10.00 Fair CLR 89.1 75.9 65% 100 29.97 1014.7
16 09:53 S 7 10.00 A Few Clouds FEW020 89.1 78.1 70% 103 29.97 1014.9
16 08:53 S 9 10.00 Fair CLR 84.9 79 82% 98 29.98 1015.1
16 07:53 SE 6 10.00 Partly Cloudy FEW020 SCT055 81 79 94% 89 29.97 1014.6
16 06:53 SE 3 10.00 Mostly Cloudy SCT023 BKN034 80.1 78.1 81 79 94% 86 29.96 1014.3
16 05:53 Calm 10.00 Partly Cloudy SCT021 80.1 77 90% 86 29.94 1013.7
16 04:53 Calm 10.00 A Few Clouds FEW021 80.1 77 90% 86 29.94 1013.6
16 03:53 SE 3 10.00 A Few Clouds FEW021 80.1 77 90% 86 29.94 1013.7
16 02:53 SE 5 10.00 Fair CLR 80.1 77 90% 86 29.95 1014.1
16 01:53 S 5 10.00 A Few Clouds FEW023 80.1 78.1 94% 86 29.97 1014.7
15 23:53 SE 7 10.00 Fair CLR 82 78.1 88% 91 29.98 1015.2
15 22:53 SE 6 10.00 A Few Clouds FEW020 82 78.1 88% 91 29.97 1014.9
15 21:53 SE 6 10.00 A Few Clouds FEW022 82 78.1 88% 91 29.96 1014.4
15 20:53 SE 8 10.00 Fair CLR 82.9 77 82% 92 29.96 1014.2
15 19:53 SE 13 10.00 Fair CLR 86 75.9 72% 96 29.95 1014.2
15 18:53 E 13 10.00 Fair CLR 87.1 75.9 93 87.1 70% 98 29.94 1013.8
15 17:53 SE 14 10.00 Fair CLR 90 73.9 59% 99 29.95 1014.2
15 16:53 SE 13 G 20 10.00 Fair CLR 90 73 58% 98 29.97 1014.6
15 15:53 SE 14 10.00 Fair CLR 91.9 73.9 56% 102 29.99 1015.3
15 14:53 S 16 G 22 10.00 Fair CLR 91.9 73.9 56% 102 30.01 1016.2
15 13:53 SE 14 10.00 Fair CLR 93 73.9 54% 103 30.03 1016.8
15 12:53 SE 13 10.00 Fair CLR 91 73.9 91.9 79 57% 101 30.05 1017.3
15 11:53 SE 9 10.00 Fair CLR 90 75.9 63% 102 30.05 1017.4
15 10:53 S 7 10.00 Fair CLR 89.1 75.9 65% 100 30.07 1017.9
15 09:53 S 10 10.00 Fair CLR 84.9 78.1 80% 97 30.07 1018.1
15 08:53 SE 6 10.00 Fair CLR 82.9 79 88% 94 30.07 1018.2
15 07:53 S 3 10.00 Fair CLR 80.1 78.1 94% 86 30.05 1017.5
15 06:53 SE 5 10.00 Partly Cloudy SCT020 SCT026 79 77 80.1 78.1 94% 83 30.04 1017.0
15 05:53 SE 3 10.00 Fair CLR 79 75.9 90% 83 30.03 1016.6
15 04:53 S 5 10.00 Fair CLR 78.1 75.9 93% 81 30.02 1016.4
15 03:53 S 6 10.00 Fair CLR 79 77 94% 83 30.03 1016.6
15 02:53 S 6 10.00 A Few Clouds FEW024 79 77 94% 83 30.03 1016.8
15 01:53 S 6 10.00 Partly Cloudy SCT025 79 77 94% 83 30.05 1017.3
15 00:53 S 5 10.00 Fair CLR 80.1 77 87.1 80.1 90% 86 30.06 1017.8
14 23:53 SE 8 10.00 Fair CLR 81 77 88% 88 30.07 1018.0
14 22:53 SE 7 10.00 Fair CLR 81 77 88% 88 30.06 1017.8
14 21:53 SE 8 10.00 A Few Clouds FEW022 80.1 77 90% 86 30.06 1017.7
14 20:53 SE 7 10.00 Fair CLR 82.9 77 82% 92 30.05 1017.5
14 19:53 SE 9 10.00 Fair CLR 86 77 75% 97 30.06 1017.9
14 18:53 SE 9 10.00 Fair CLR 87.1 77 93.9 87.1 72% 99 30.06 1017.7
14 17:53 SE 10 10.00 Fair CLR 88 75 66% 98 30.06 1017.7
14 16:53 SE 13 10.00 Fair CLR 89.1 77 68% 102 30.07 1018.1
14 15:53 SE 14 10.00 Fair CLR 89.1 75.9 65% 100 30.08 1018.3
14 14:53 SE 15 10.00 Partly Cloudy SCT037 91 75.9 61% 103 30.09 1018.8
14 13:53 SE 14 10.00 A Few Clouds FEW037 91.9 77 62% 106 30.1 1019.1
14 12:53 E 14 10.00 Partly Cloudy SCT034 SCT044 93 79 93 78.1 64% 110 30.11 1019.3
14 11:53 Vrbl 6 10.00 Partly Cloudy FEW029 SCT038 91 78.1 66% 106 30.11 1019.6
14 10:53 S 12 10.00 Fair CLR 90 78.1 68% 105 30.11 1019.4
14 09:53 SE 9 10.00 Partly Cloudy FEW017 FEW034 SCT045 88 79 75% 103 30.11 1019.6
14 08:53 SE 5 10.00 Fair CLR 84 79 85% 96 30.11 1019.6
14 07:53 Calm 10.00 Fair CLR 81 79 94% 89 30.11 1019.6
14 06:53 Calm 9.00 Fair CLR 79 77 81 78.1 94% 83 30.1 1019.0
14 05:53 SE 5 10.00 A Few Clouds FEW039 79 77 94% 83 30.08 1018.6
Date Time (cdt) Wind (mph) Vis. (mi.) Weather Sky Cond. Air Dwpt Max. Min. Relative Humidity Wind Chill (°F) Heat Index (°F) altimeter (in) sea level (mb) 1 hr 3 hr 6 hr
6 hour
Temperature (ºF) Pressure Precipitation (in)